SAS1213 EKCH-EKYT

Flight info

Callsign SAS1213
Flight time N/A
Altitude 18000
Route GOLGA DCT BAKIT
Aircraft A320/M-SDE3FGHIRWY/LB1

Departure

Time N/A
Airport Copenhagen Kastrup Airport (EKCH)

Arrival

Time 2026-05-03 20:31
Airport Aalborg Airport (EKYT)
Time Latitude Longitude Altitude Speed Heading
2026-05-03 20:15 56.49360 11.10925 14499 ft 315 kts 316°
2026-05-03 20:15 56.50496 11.09293 14339 ft 315 kts 316°
2026-05-03 20:15 56.52204 11.06830 14103 ft 313 kts 316°
2026-05-03 20:15 56.53903 11.04372 13867 ft 312 kts 316°
2026-05-03 20:16 56.55593 11.01927 13621 ft 311 kts 316°
2026-05-03 20:16 56.57281 10.99481 13354 ft 310 kts 316°
2026-05-03 20:16 56.58964 10.97046 13089 ft 309 kts 316°
2026-05-03 20:16 56.60638 10.94621 12818 ft 308 kts 316°
2026-05-03 20:17 56.62308 10.92195 12567 ft 306 kts 316°
2026-05-03 20:17 56.63963 10.89784 12319 ft 304 kts 315°
2026-05-03 20:17 56.65613 10.87384 12061 ft 302 kts 315°
2026-05-03 20:17 56.67254 10.84996 11804 ft 301 kts 315°
2026-05-03 20:18 56.68880 10.82630 11566 ft 298 kts 315°
2026-05-03 20:18 56.70453 10.80345 11294 ft 279 kts 315°
2026-05-03 20:18 56.71935 10.78199 10973 ft 269 kts 315°
2026-05-03 20:18 56.73405 10.76046 10649 ft 272 kts 314°
2026-05-03 20:19 56.74877 10.73880 10321 ft 272 kts 314°
2026-05-03 20:19 56.76337 10.71731 9994 ft 268 kts 314°
2026-05-03 20:19 56.77785 10.69600 9662 ft 266 kts 315°
2026-05-03 20:19 56.79223 10.67485 9323 ft 265 kts 315°
2026-05-03 20:20 56.80652 10.65383 8993 ft 263 kts 315°
2026-05-03 20:20 56.82072 10.63295 8676 ft 261 kts 315°
2026-05-03 20:20 56.83482 10.61221 8356 ft 260 kts 315°
2026-05-03 20:20 56.84888 10.59147 8037 ft 258 kts 315°
2026-05-03 20:21 56.86275 10.57097 7732 ft 256 kts 316°
2026-05-03 20:21 56.87654 10.55061 7415 ft 254 kts 316°
2026-05-03 20:21 56.89024 10.53037 7103 ft 253 kts 316°
2026-05-03 20:21 56.90388 10.51018 6788 ft 252 kts 316°
2026-05-03 20:22 56.91744 10.49008 6479 ft 250 kts 317°
2026-05-03 20:22 56.93092 10.47005 6162 ft 249 kts 317°
2026-05-03 20:22 56.94436 10.45004 5847 ft 248 kts 317°
2026-05-03 20:22 56.95778 10.43010 5532 ft 249 kts 319°
2026-05-03 20:23 56.97103 10.41042 5226 ft 248 kts 319°
2026-05-03 20:23 56.98440 10.39049 4919 ft 247 kts 319°
2026-05-03 20:23 56.99767 10.37072 4613 ft 245 kts 319°
2026-05-03 20:23 57.01087 10.35103 4296 ft 244 kts 319°
2026-05-03 20:24 57.02401 10.33139 3989 ft 243 kts 319°
2026-05-03 20:24 57.03684 10.31225 3825 ft 228 kts 319°
2026-05-03 20:24 57.04897 10.29411 3747 ft 223 kts 319°
2026-05-03 20:24 57.06099 10.27608 3648 ft 223 kts 319°
2026-05-03 20:25 57.07272 10.25845 3556 ft 209 kts 319°
2026-05-03 20:25 57.08379 10.24184 3474 ft 204 kts 319°
2026-05-03 20:25 57.09475 10.22536 3379 ft 203 kts 319°
2026-05-03 20:25 57.10528 10.20822 3294 ft 201 kts 308°
2026-05-03 20:26 57.11223 10.18625 3252 ft 199 kts 287°
2026-05-03 20:26 57.11427 10.16141 3081 ft 196 kts 264°
2026-05-03 20:26 57.11282 10.13710 2868 ft 184 kts 262°
2026-05-03 20:26 57.11143 10.11447 2592 ft 172 kts 262°
2026-05-03 20:27 57.11014 10.09358 2386 ft 158 kts 262°
2026-05-03 20:27 57.10894 10.07429 2186 ft 147 kts 262°
2026-05-03 20:27 57.10780 10.05598 1998 ft 140 kts 262°
2026-05-03 20:27 57.10670 10.03834 1812 ft 137 kts 262°
2026-05-03 20:28 57.10561 10.02098 1619 ft 136 kts 262°
2026-05-03 20:28 57.10453 10.00380 1429 ft 135 kts 262°
2026-05-03 20:28 57.10345 9.98662 1241 ft 135 kts 262°
2026-05-03 20:28 57.10236 9.96934 1053 ft 136 kts 263°
2026-05-03 20:29 57.10127 9.95201 859 ft 137 kts 263°
2026-05-03 20:29 57.10018 9.93455 667 ft 138 kts 263°
2026-05-03 20:29 57.09899 9.91693 456 ft 139 kts 262°
2026-05-03 20:29 57.09779 9.89916 241 ft 140 kts 265°
2026-05-03 20:30 57.09688 9.88127 91 ft 141 kts 264°
2026-05-03 20:30 57.09577 9.86385 19 ft 120 kts 263°
2026-05-03 20:30 57.09506 9.85372 19 ft 61 kts 263°
2026-05-03 20:30 57.09453 9.84509 19 ft 75 kts 263°
2026-05-03 20:31 57.09403 9.83694 19 ft 37 kts 263°
2026-05-03 20:31 57.09345 9.83393 19 ft 13 kts 193°
2026-05-03 20:31 57.09269 9.83448 19 ft 11 kts 136°
2026-05-03 20:31 57.09212 9.83559 19 ft 14 kts 126°
2026-05-03 20:32 57.09206 9.83758 19 ft 18 kts 83°
2026-05-03 20:32 57.09222 9.84017 19 ft 23 kts 83°
2026-05-03 20:32 57.09243 9.84329 19 ft 27 kts 82°
2026-05-03 20:32 57.09266 9.84689 19 ft 30 kts 83°
2026-05-03 20:33 57.09292 9.85087 19 ft 33 kts 83°
2026-05-03 20:33 57.09320 9.85531 19 ft 37 kts 84°
2026-05-03 20:33 57.09327 9.85896 21 ft 17 kts 123°
2026-05-03 20:33 57.09226 9.86046 19 ft 21 kts 143°
2026-05-03 20:34 57.09097 9.86228 19 ft 25 kts 142°
2026-05-03 20:34 57.08948 9.86441 19 ft 29 kts 142°
2026-05-03 20:34 57.08788 9.86672 19 ft 28 kts 142°
2026-05-03 20:34 57.08683 9.86829 19 ft 9 kts 139°
2026-05-03 20:35 57.08685 9.86909 21 ft 7 kts 51°
2026-05-03 20:35 57.08704 9.86966 20 ft 0 kts 58°
2026-05-03 20:35 57.08708 9.86976 19 ft 0 kts 57°